Погода в Яхреньге

Россия / Кировская область     60°12′48″N   46°54′50″E
темп.,
°C
ветер,
м/с
пор.,
м/с
влажн.,
%
обл.,
%
осадки,
мм/ч
давл.,
гПа
погр.,
м
25 февраля, чт
чт2500:00−21ю389587 0.0 1029238
03:00−20ю499491 0.0 1026304
06:00−20ююв41192100 0.0 1022353
09:00−18ююв51295100 0.2 1020429
12:00−16ююв51294100 0.9 1018546
15:00−15ююв51091100 1.4 1017669
18:00−16ююв3993100 0.1 1017676
21:00−17ююв3993100 0.3 1017560
26 февраля, пт
пт2600:00−18ююв379496 0.1 1017416
03:00−20ююв389597 0.1 1017309
06:00−22ююв399661 0.0 1016280
09:00−20ююв499464 0.0 1014377
12:00−16ююв51089100 0.0 1012566
15:00−14юв51189100 0.1 1008587
18:00−16юв61291100 0.1 1005618
21:00−16юв51194100 0.3 1004621
27 февраля, сб
сб2700:00−16вюв41095100 0.9 1003598
03:00−17в4892100 1.1 1004521
06:00−18в3894100 0.0 1004440
09:00−17всв3792100 0.0 1006415
12:00−15всв3589100 0.0 1006544
15:00−13св3588100 0.1 1008600
18:00−17ссв2397100 0.0 100970
21:00−19ссв239890 0.1 101150
28 февраля, вс
вс2800:00−20с239979 0.0 101248
03:00−21с239970 0.0 101436
06:00−22ссв229955 0.0 101422
09:00−19с239657 0.0 1016156
12:00−14с238782 0.0 1017403
15:00−12с248891 0.0 1017490
18:00−16ссз229688 0.0 101920
21:00−19зсз119847 0.0 102020
1 марта, пн
пн100:00−19юз229814 0.0 102020
03:00−19юз239823 0.0 102073
06:00−18юз389844 0.0 1018152
09:00−12ююз4109571 0.0 1014272
12:00−7юз51094100 0.5 1011431
15:00−4зюз51195100 1.6 1007771
18:00−2юз51296100 1.9 1002693
21:000з3899100 4.0 1000521